sat.trackr.live / text

‹ back to catalog

KUIPER-00604

NORAD 69769 · 2026-151G

PAYLOAD ACTIVE UNKNOWN

§ Identity

Operator
Country
US
Launch date
2026-07-02
Launch site
AFETR
Launch vehicle
Mass (kg)
RCS (m²)

External: N2YO · Heavens-Above · Gunter

§ Orbital elements

Epoch: 2026-09-20T04:29:59.785728Z

Period
97.30 min
Inclination
51.9012°
Eccentricity
0.0000479
Mean motion
14.79948964 rev/d
Perigee alt
629.1 km
Apogee alt
629.8 km
Semi-major
7,007.6 km
B*
2.4855e-4
RAAN
230.5773°
Arg perigee
62.1910°
Mean anomaly
297.9101°
Rev number
1,212

§ Raw data

KUIPER-006041 69769U 26151G   26263.18749752  .00001675  00000+0  24855-3 0  99992 69769  51.9012 230.5773 0000479  62.1910 297.9101 14.79948964 12129

JSON: /api/v1/satellites/69769 · /tle

For live sub-satellite position, see the globe view (requires WebGL).

§ Visibility from observer

Set your observer location to see the next 7 days of passes ≥ 10°. The values pass through the URL so the page stays shareable.

No JS? Fill the form by hand. The geolocation button needs JavaScript.